Location: Franzen
(48.6167°N, 15.3833°E)
Time: 22:40:40
(UTC+00:00)

Cosmos 2219 - Pass Details

Date: 05 August 2021
Orbit: 834 x 859 km, 71.1° (Epoch: 22 September)

Event Time Altitude Azimuth Distance (km) Brightness Sun altitude
Exits shadow 21:06:55 28° 111° (ESE) 1,562 4.2 -19.6°
Maximum altitude 21:07:20 28° 103° (ESE) 1,554 4.2 -19.7°
Drops below altitude 10° 21:12:08 10° 47° (NE) 2,504 5.8 -20.0°
Sets 21:14:54 0° 36° (NE) 3,446 6.7 -20.3°
